Wind_Speed
104 94 78 76 87 87 89 87 78 74 69 70 57 44 55 57 62 62 56 57 57 59 56 51 48 49 52 51 53 55 55 58 59 59 58 58 62 61 61 66 67 64 66
110 110 94 78 77 88 81 88 85 79 73 71 60 51 43 31 45 56 57 62 60 57 57 57 58 54 52 53 54 56 57 61 62 63 64 65 64 69 68 69 69 72 71
102 105 99 87 76 81 88 84 80 73 63 63 71 69 63 51 44 46 52 55 66 66 65 65 64 60 59 58 59 59 60 64 63 66 67 69 70 71 71 70 72 68 66
104 106 111 103 88 80 84 86 73 57 47 48 51 67 86 78 57 64 67 63 62 63 67 68 70 68 64 63 64 63 63 65 68 66 66 67 69 73 72 71 72 71 69
102 104 108 110 106 90 84 85 88 81 71 58 70 49 57 81 72 69 70 69 69 72 74 73 66 67 68 67 66 63 65 69 71 69 71 72 72 72 75 73 72 72 71
102 105 110 109 109 107 99 83 86 84 86 67 74 76 68 75 78 70 64 71 64 60 61 66 68 63 46 56 70 67 61 62 66 65 67 68 73 75 74 77 79 77 78
97 94 98 96 101 105 103 99 93 96 91 93 94 84 79 84 91 82 77 78 86 87 79 75 67 68 66 69 63 61 59 55 77 79 80 79 80 79 79 81 84 86 85
78 89 93 96 98 102 108 106 102 101 109 111 106 103 103 94 91 90 90 89 93 94 92 82 78 76 73 72 75 78 80 84 86 88 87 86 84 82 84 87 91 92 90
79 79 87 91 98 102 102 104 106 105 102 101 105 107 105 107 100 91 92 93 94 97 97 95 90 89 89 91 93 94 94 92 94 89 89 89 88 89 91 93 93 94 94
84 81 79 82 85 90 100 103 103 104 106 105 105 112 115 116 111 106 102 100 102 106 104 103 101 99 98 97 98 97 97 98 97 99 98 98 97 96 98 96 97 97 99
84 85 85 85 84 84 88 91 92 99 103 105 107 109 114 117 118 111 107 108 109 103 107 112 108 105 103 104 104 103 102 101 102 104 104 103 103 102 102 104 105 106 111
80 87 89 88 86 87 83 82 86 91 95 99 100 105 107 106 110 114 116 115 112 111 105 103 105 108 110 112 114 115 116 116 114 112 112 108 107 106 111 110 112 114 113
88 83 80 81 83 81 83 81 83 85 87 91 95 97 95 100 104 105 106 108 109 106 106 108 106 106 108 107 107 107 109 108 107 111 114 116 114 114 117 116 114 113 110
83 81 77 81 80 79 81 83 80 78 80 85 87 90 93 97 98 98 102 106 106 105 103 105 102 102 101 101 102 102 104 105 106 108 109 113 115 116 115 112 111 109 109
70 71 73 79 81 82 79 76 80 82 84 85 87 87 86 89 91 93 96 97 98 98 99 102 101 101 102 102 103 104 105 105 106 106 108 109 110 111 112 112 113 109 108
69 68 70 74 77 77 76 75 78 81 82 82 81 81 83 84 86 89 91 90 90 89 92 94 96 96 98 98 99 102 104 106 106 107 107 108 110 112 111 112 111 109 107
62 63 65 67 69 70 71 73 76 77 77 78 77 78 80 82 84 86 85 86 87 87 88 90 91 91 92 94 96 97 98 99 99 100 101 104 105 106 107 106 105 105 106
61 62 63 65 67 69 71 72 74 74 75 76 78 79 80 80 81 82 83 83 85 86 88 88 89 91 91 92 93 94 94 96 97 98 98 99 100 101 101 103 104 105 105
57 59 61 62 65 68 70 71 71 71 72 73 76 76 77 79 80 81 82 82 83 84 86 87 88 89 91 92 93 93 94 95 96 98 97 99 101 102 102 102 102 103 104
55 56 57 58 59 62 63 65 67 68 69 71 72 74 75 76 78 79 79 79 81 82 83 85 85 87 88 89 90 91 91 92 94 96 97 98 99 99 99 97 96 94 93
52 54 55 56 57 58 61 64 65 67 68 69 68 69 71 75 75 76 77 77 78 79 80 80 82 83 83 83 84 84 86 87 88 90 91 91 92 92 92 90 89 88 86
48 51 53 54 55 57 59 61 63 64 66 66 66 68 70 71 72 73 73 73 75 75 75 76 76 76 76 78 79 80 81 83 84 86 87 88 89 88 87 86 84 82 80
46 48 50 51 53 55 57 59 60 62 64 65 66 68 69 71 71 70 70 71 72 72 72 74 75 75 75 76 77 78 80 81 82 83 84 84 82 81 80 78 74 70 66
44 45 47 49 52 54 56 58 59 61 62 64 66 67 68 68 67 67 67 69 71 70 71 71 70 70 72 73 73 72 72 74 76 76 76 75 74 70 66 61 57 54 52
43 45 47 50 52 54 55 57 59 60 62 63 65 66 66 66 66 67 68 68 68 69 68 69 69 70 69 68 68 66 65 67 67 65 63 62 60 57 53 50 47 45 44
44 45 47 49 51 52 54 56 58 58 60 62 63 63 64 65 65 65 66 68 68 67 68 68 67 66 64 63 59 57 57 56 56 56 54 52 51 48 46 43 42 41 40
Wind_Direction
207 199 192 202 210 218 226 225 227 227 235 236 236 243 248 258 253 252 251 249 249 249 248 252 256 260 261 260 260 262 264 264 266 266 271 269 265 266 275 282 285 290 289
208 206 203 201 204 212 215 220 222 226 229 235 219 222 253 237 243 249 252 249 247 248 250 250 250 250 254 261 265 265 265 266 266 266 268 267 271 271 275 280 281 283 292
206 210 204 199 202 208 216 219 222 224 225 229 231 227 228 231 233 243 247 248 245 246 247 247 250 252 257 258 261 264 266 267 266 268 270 272 275 276 279 280 281 285 288
208 209 209 208 205 206 213 210 213 207 213 226 227 235 229 232 238 242 249 250 247 247 250 255 255 255 258 259 259 260 265 268 267 270 273 277 278 279 281 281 280 280 280
212 213 212 212 215 206 206 212 212 213 211 202 209 219 219 226 232 235 236 240 249 249 248 254 256 254 253 257 258 259 262 268 266 270 273 273 274 277 280 279 279 284 288
209 212 215 216 216 221 214 210 209 215 211 210 214 219 223 222 230 230 236 242 244 249 241 250 252 251 252 258 254 256 263 274 276 270 272 270 277 280 280 281 282 282 284
209 212 216 222 222 223 225 220 213 213 217 218 222 224 226 228 229 229 235 240 244 247 245 247 248 247 242 249 255 255 256 266 269 275 275 277 278 278 279 281 282 285 289
207 207 215 217 219 223 225 226 226 221 221 223 226 231 230 231 232 236 237 240 245 249 251 251 254 255 253 255 260 264 266 266 266 268 272 274 276 276 280 281 284 288 291
220 216 214 218 219 221 224 226 225 224 226 225 225 225 229 233 235 236 240 244 247 247 249 252 254 257 257 259 263 265 268 268 271 271 273 274 275 278 279 282 283 284 286
225 224 223 224 223 223 225 226 227 229 231 233 229 229 232 234 237 238 240 241 245 246 250 253 254 255 257 259 261 264 267 269 270 270 269 270 273 274 278 280 281 282 284
226 228 230 231 232 229 228 230 232 232 232 232 234 234 234 235 238 240 243 243 246 249 251 249 252 255 257 260 263 265 266 266 268 270 272 273 273 275 275 276 279 282 283
229 230 233 234 233 235 234 231 232 233 233 234 235 238 239 239 241 241 242 245 248 249 250 252 255 257 258 258 259 260 263 265 267 268 270 271 272 274 276 279 281 283 285
231 235 235 236 236 239 240 241 239 237 236 236 238 239 241 242 243 243 245 247 250 252 253 254 256 257 258 260 261 262 264 265 266 267 268 269 271 274 277 280 280 283 284
229 233 235 237 237 237 241 243 244 243 242 240 241 242 243 243 245 246 247 249 251 253 254 256 256 257 259 259 261 262 262 264 266 267 268 269 271 272 274 276 279 281 281
227 227 231 237 239 240 238 238 242 242 244 243 243 244 246 248 249 249 249 251 253 255 257 258 259 259 259 260 261 262 264 265 266 268 269 270 271 273 276 277 279 280 280
227 228 229 231 233 236 236 236 238 239 240 242 245 248 249 250 251 251 252 253 255 257 258 259 261 262 262 262 263 263 264 266 268 268 269 270 272 274 275 277 278 280 280
227 230 230 231 233 235 236 238 240 241 242 244 246 250 251 251 252 254 256 257 258 259 260 261 262 262 263 263 264 265 266 267 268 270 271 271 273 274 276 276 277 279 280
227 229 231 233 235 236 237 238 240 241 243 245 246 248 250 252 254 255 257 259 260 261 262 263 263 263 264 265 265 266 267 268 269 271 272 273 273 274 275 276 277 278 279
226 231 233 233 233 234 235 238 240 242 243 245 247 250 252 253 254 256 257 259 261 262 263 264 265 265 265 266 267 268 269 270 270 271 272 272 273 273 274 276 278 279 280
228 230 234 236 238 239 241 242 244 245 247 248 249 250 252 254 256 258 259 261 263 264 264 265 265 266 267 267 267 268 270 271 271 271 272 274 275 276 277 277 278 280 280
230 232 234 236 237 238 239 241 242 244 246 248 250 252 252 254 256 258 260 262 264 265 266 267 267 267 268 270 270 270 270 271 271 273 274 275 276 277 278 280 281 281 281
239 237 237 238 239 240 240 241 242 244 246 248 250 251 253 255 256 259 261 262 264 265 266 267 268 269 269 269 270 271 272 273 274 275 275 276 278 280 281 282 282 281 280
241 242 243 244 245 244 243 245 247 248 249 250 252 253 255 257 260 261 262 264 265 267 269 270 270 272 272 272 273 273 274 274 274 276 277 278 280 280 281 281 281 280 279
238 240 242 243 244 246 247 247 248 249 251 253 255 257 259 262 264 264 265 267 268 270 269 270 271 270 270 271 272 273 274 274 275 276 277 278 279 280 281 280 280 279 278
241 240 240 242 244 246 247 249 251 252 254 256 258 258 261 264 266 268 269 270 272 273 273 273 274 274 274 275 275 276 276 276 277 278 278 278 279 280 280 278 278 277 277
235 238 241 242 244 245 247 249 251 253 254 256 258 261 263 266 268 270 272 273 273 274 274 275 276 276 277 277 277 276 275 274 276 277 278 278 279 278 278 277 277 276 275
Height
10632 10651 10665 10683 10698 10711 10723 10735 10749 10762 10765 10775 10787 10790 10793 10794 10793 10798 10799 10802 10804 10807 10809 10810 10812 10813 10814 10815 10814 10815 10814 10814 10814 10813 10814 10810 10804 10803 10803 10805 10804 10802 10800
10613 10636 10655 10669 10686 10698 10709 10719 10735 10750 10761 10765 10777 10782 10784 10778 10780 10784 10789 10792 10793 10796 10799 10799 10799 10801 10804 10804 10804 10804 10803 10802 10802 10801 10800 10799 10798 10796 10798 10796 10795 10793 10790
10611 10626 10645 10653 10668 10681 10697 10712 10727 10741 10754 10760 10766 10776 10770 10766 10770 10774 10775 10776 10780 10784 10785 10787 10790 10792 10792 10793 10793 10792 10792 10791 10791 10789 10789 10789 10789 10787 10787 10787 10785 10783 10781
10593 10608 10627 10640 10653 10669 10684 10702 10715 10731 10743 10744 10758 10750 10753 10758 10762 10763 10765 10767 10768 10772 10773 10776 10778 10783 10781 10781 10780 10782 10780 10778 10777 10779 10778 10778 10776 10775 10774 10774 10772 10770 10769
10581 10598 10614 10628 10640 10656 10670 10684 10702 10715 10725 10724 10729 10732 10739 10745 10746 10749 10750 10750 10755 10758 10762 10763 10764 10766 10769 10767 10768 10769 10765 10761 10763 10768 10767 10765 10763 10762 10759 10756 10757 10757 10755
10566 10584 10596 10610 10629 10643 10658 10673 10689 10698 10708 10708 10709 10717 10721 10729 10734 10740 10743 10745 10745 10748 10748 10748 10750 10752 10759 10749 10753 10756 10755 10750 10746 10750 10752 10753 10751 10749 10746 10743 10740 10743 10742
10556 10580 10597 10611 10626 10635 10646 10657 10670 10680 10684 10689 10696 10702 10709 10712 10716 10720 10722 10724 10725 10728 10732 10734 10734 10737 10741 10741 10743 10745 10744 10742 10734 10734 10735 10736 10736 10734 10731 10728 10725 10724 10723
10549 10570 10581 10595 10606 10616 10626 10638 10651 10661 10668 10677 10681 10689 10696 10695 10699 10704 10708 10709 10713 10716 10719 10721 10724 10729 10731 10731 10732 10733 10734 10731 10727 10724 10724 10724 10721 10719 10718 10714 10709 10707 10704
10535 10550 10565 10578 10590 10599 10608 10619 10632 10642 10650 10660 10669 10674 10677 10679 10682 10688 10692 10696 10699 10704 10707 10708 10712 10713 10715 10716 10719 10717 10717 10717 10711 10714 10713 10711 10710 10706 10704 10701 10696 10692 10691
10525 10538 10550 10562 10573 10582 10591 10601 10614 10625 10635 10645 10652 10658 10660 10662 10668 10674 10676 10681 10685 10687 10689 10691 10694 10697 10699 10702 10702 10702 10702 10698 10698 10696 10698 10696 10694 10692 10688 10686 10682 10677 10675
10516 10525 10535 10543 10553 10565 10577 10591 10602 10608 10618 10623 10628 10636 10641 10647 10651 10659 10665 10666 10666 10669 10672 10674 10677 10680 10683 10682 10683 10683 10683 10682 10681 10677 10677 10676 10675 10674 10671 10669 10667 10663 10658
10498 10511 10519 10528 10539 10548 10558 10570 10578 10585 10595 10604 10611 10617 10624 10632 10637 10641 10643 10645 10650 10653 10657 10658 10660 10662 10664 10663 10664 10666 10664 10663 10663 10660 10656 10658 10657 10655 10649 10648 10645 10641 10638
10487 10496 10507 10518 10528 10537 10546 10552 10559 10569 10577 10584 10591 10599 10606 10611 10616 10623 10625 10628 10631 10635 10638 10638 10640 10643 10641 10644 10644 10646 10643 10644 10644 10642 10640 10638 10637 10632 10626 10627 10624 10619 10617
10478 10487 10498 10506 10513 10522 10529 10537 10546 10555 10563 10570 10576 10582 10585 10591 10598 10604 10607 10609 10612 10616 10618 10618 10622 10623 10623 10624 10624 10625 10624 10624 10623 10622 10621 10618 10617 10615 10612 10611 10607 10603 10599
10465 10477 10487 10495 10500 10505 10513 10525 10532 10538 10543 10550 10556 10563 10570 10575 10580 10584 10588 10590 10593 10595 10598 10599 10602 10603 10604 10604 10603 10603 10602 10602 10601 10600 10599 10598 10595 10592 10590 10588 10584 10583 10579
10453 10463 10472 10479 10483 10489 10499 10510 10517 10522 10528 10535 10541 10545 10551 10556 10560 10563 10567 10571 10574 10577 10577 10579 10579 10580 10580 10582 10581 10580 10579 10579 10579 10578 10577 10576 10574 10571 10569 10565 10562 10560 10557
10443 10450 10458 10465 10471 10479 10489 10496 10501 10507 10514 10519 10524 10530 10535 10538 10541 10544 10548 10551 10554 10556 10556 10556 10558 10559 10559 10559 10558 10557 10557 10556 10556 10555 10554 10551 10549 10547 10544 10541 10538 10536 10533
10434 10440 10446 10453 10460 10467 10474 10480 10486 10493 10500 10505 10509 10513 10517 10521 10524 10526 10529 10531 10532 10534 10535 10535 10535 10535 10536 10536 10536 10537 10536 10535 10534 10533 10531 10529 10525 10522 10519 10516 10514 10512 10510
10424 10429 10435 10442 10449 10454 10460 10466 10472 10478 10485 10490 10493 10497 10502 10505 10507 10509 10510 10512 10513 10513 10513 10512 10513 10513 10513 10513 10513 10514 10513 10512 10510 10508 10505 10503 10499 10496 10495 10494 10491 10488 10485
10412 10419 10424 10429 10436 10442 10448 10453 10458 10463 10468 10473 10477 10480 10484 10486 10488 10490 10492 10492 10492 10492 10491 10490 10491 10491 10490 10489 10490 10490 10488 10487 10484 10482 10479 10477 10475 10471 10467 10466 10465 10462 10459
10403 10408 10413 10418 10423 10429 10434 10439 10444 10449 10452 10456 10460 10464 10465 10466 10469 10471 10471 10472 10472 10472 10471 10471 10469 10468 10468 10467 10466 10466 10465 10462 10459 10457 10455 10452 10448 10445 10443 10442 10439 10436 10433
10392 10397 10401 10406 10411 10415 10420 10424 10428 10432 10436 10441 10444 10446 10448 10450 10451 10452 10454 10454 10453 10452 10451 10450 10449 10447 10447 10445 10444 10441 10441 10438 10436 10433 10430 10427 10424 10422 10419 10417 10414 10411 10409
10380 10385 10390 10395 10399 10403 10407 10410 10414 10417 10421 10424 10427 10429 10430 10432 10433 10435 10436 10435 10434 10433 10432 10429 10428 10427 10426 10423 10423 10420 10418 10417 10414 10411 10407 10405 10403 10401 10398 10395 10391 10389 10385
10369 10374 10379 10382 10386 10390 10393 10396 10399 10402 10405 10407 10409 10411 10412 10414 10415 10416 10416 10415 10413 10412 10410 10409 10408 10407 10405 10404 10403 10402 10398 10394 10391 10391 10388 10386 10382 10380 10378 10375 10372 10370 10367
10356 10360 10364 10368 10371 10374 10377 10381 10384 10386 10389 10391 10393 10394 10395 10396 10397 10396 10395 10394 10393 10391 10389 10388 10387 10386 10384 10385 10383 10381 10378 10374 10372 10371 10369 10366 10364 10362 10360 10358 10356 10355 10354
10341 10344 10347 10351 10355 10358 10362 10365 10368 10370 10372 10374 10376 10377 10377 10378 10377 10376 10375 10373 10372 10372 10370 10369 10367 10367 10366 10365 10364 10361 10359 10357 10355 10353 10351 10348 10348 10347 10345 10344 10343 10342 10342